Location: Cz?stochówka
(50.8142°N, 19.0915°E)
Time: 06:02:57
(UTC+00:00)

Lacrosse 5 rocket - Pass Details

Date: 13 January 2026
Orbit: 402 x 482 km, 57.0° (Epoch: 10 February)

Event Time Altitude Azimuth Distance (km) Brightness Sun altitude
Exits shadow 05:21:58 18° 306° (NW) 1,267 2.6 -12.0°
Maximum altitude 05:24:08 31° 358° (N) 883 2.2 -11.7°
Drops below altitude 10° 05:27:33 10° 63° (ENE) 1,685 4.4 -11.2°
Sets 05:29:54 0° 74° (ENE) 2,563 5.7 -10.8°
